Location: Boneville
(33.4331°N, 82.4399°W)
Time: 10:33:04
(UTC+00:00)

Tiangong - Pass Details

Date: 13 December 2021
Orbit: 383 x 387 km, 41.5° (Epoch: 19 January)

Event Time Altitude Azimuth Distance (km) Brightness Sun altitude
Rises 23:12:16 0° 287° (WNW) 2,276 5.9 -10.2°
Reaches altitude 10° 23:14:44 10° 306° (NW) 1,419 4.4 -10.7°
Maximum altitude 23:17:09 19° 355° (N) 988 3.0 -11.1°
Enters shadow 23:18:49 14° 33° (NNE) 1,211 3.1 -11.5°
